This demonstration page uses our WeatherBlox Daily Observations layout. Learn more.

Left ArrowRight Arrow

44.89941, -97.11507

Hourly Observations for November 17, 2020

Temp ( °F °C ) Dew Point ( °F °C ) Humidity (%) Winds ( mph kmh ) Pressure ( in mb ) Visibility ( mi km ) Precip ( " mm )
12:53 am 00:53 Clear 17 -8.3 15 -9.4 92 92 Calm 30.44 1031 10 16 0.00 0.00
1:53 am 01:53 Clear 15 -9.4 13 -10.6 91 91 Calm 30.46 1032 10 16 0.00 0.00
2:53 am 02:53 Clear 17 -8.3 14 -10 88 88 Calm 30.47 1032 10 16 0.00 0.00
3:53 am 03:53 Clear 18 -7.8 16 -8.9 92 92 S 5 7 30.47 1032 10 16 0.00 0.00
4:53 am 04:53 Clear 18 -7.8 16 -8.9 92 92 SE 5 7 30.48 1032 10 16 0.00 0.00
5:53 am 05:53 Clear 20 -6.7 17 -8.3 89 89 SSE 6 9 30.46 1032 10 16 0.00 0.00
6:53 am 06:53 Mostly Cloudy 22 -5.6 19 -7.2 89 89 SSE 7 11 30.46 1032 10 16 0.00 0.00
7:53 am 07:53 Cloudy 24 -4.4 20 -6.7 84 84 SSE 8 13 30.46 1031 10 16 0.00 0.00
8:53 am 08:53 Cloudy 26 -3.3 21 -6.1 81 81 SSE 10 17 30.47 1032 10 16 0.00 0.00
9:53 am 09:53 Cloudy 28 -2.2 23 -5 81 81 S 12 19 30.46 1031 10 16 0.00 0.00
10:53 am 10:53 Cloudy 31 -0.6 23 -5 72 72 SSE 14 22 30.45 1031 10 16 0.00 0.00
11:53 am 11:53 Cloudy 34 1.1 25 -3.9 70 70 SSE 10 17 30.42 1030 10 16 0.00 0.00
12:53 pm 12:53 Cloudy 37 2.8 26 -3.3 65 65 SSE 14 22 30.36 1028 10 16 0.00 0.00
1:53 pm 13:53 Sunny 39 3.9 28 -2.2 65 65 SSE 16 26 30.31 1027 10 16 0.00 0.00
2:53 pm 14:53 Sunny 41 5 30 -1.1 65 65 SE 9 15 30.29 1026 10 16 0.00 0.00
3:53 pm 15:53 Sunny 41 5 29 -1.7 62 62 ESE 10 17 30.27 1025 10 16 0.00 0.00
4:53 pm 16:53 Sunny 38 3.3 29 -1.7 70 70 SSE 9 15 30.27 1025 10 16 0.00 0.00
5:53 pm 17:53 Clear 35 1.7 29 -1.7 78 78 ESE 8 13 30.26 1025 10 16 0.00 0.00
6:53 pm 18:53 Clear 35 1.7 29 -1.7 78 78 SE 13 20 30.23 1024 10 16 0.00 0.00
7:53 pm 19:53 Clear 36 2.2 30 -1.1 79 79 SE 17 28 30.19 1023 10 16 0.00 0.00
8:53 pm 20:53 Clear 36 2.2 29 -1.7 76 76 SSE 16 26 30.16 1021 10 16 0.00 0.00
9:53 pm 21:53 Clear 35 1.7 29 -1.7 78 78 SE 15 24 30.12 1020 10 16 0.00 0.00
10:53 pm 22:53 Clear 35 1.7 29 -1.7 78 78 SSE 15 24 30.09 1019 10 16 0.00 0.00
11:53 pm 23:53 Clear 34 1.1 29 -1.7 82 82 SSE 13 20 30.06 1018 10 16 0.00 0.00

Powered by AerisWeather